TimeEST,TemperatureF,Dew PointF,Humidity,Sea Level PressureIn,VisibilityMPH,Wind Direction,Wind SpeedMPH,Gust SpeedMPH,PrecipitationIn,Events,Conditions,WindDirDegrees,DateUTC
12:19 AM,64.4,64.4,100,29.87,10.0,SSW,9.2,-,N/A,,Overcast,210,2003-01-01 05:19:00
12:53 AM,64.9,64.9,100,29.86,10.0,SSW,11.5,-,0.07,,Overcast,200,2003-01-01 05:53:00
1:28 AM,64.4,64.4,100,29.85,10.0,SSW,9.2,-,0.00,Rain-Thunderstorm,Light Rain,200,2003-01-01 06:28:00
1:35 AM,64.4,64.4,100,29.86,10.0,South,8.1,-,0.00,Rain-Thunderstorm,Light Rain,190,2003-01-01 06:35:00
1:40 AM,64.4,64.4,100,29.86,9.0,SSW,10.4,-,0.01,Rain,Light Rain,200,2003-01-01 06:40:00
1:53 AM,64.9,64.9,100,29.85,8.0,South,9.2,-,0.02,Rain,Light Rain,190,2003-01-01 06:53:00
2:53 AM,64.9,64.9,100,29.84,9.0,South,12.7,-,0.00,,Overcast,190,2003-01-01 07:53:00
3:03 AM,64.4,64.4,100,29.85,10.0,South,11.5,-,N/A,,Overcast,190,2003-01-01 08:03:00
3:40 AM,64.4,64.4,100,29.85,10.0,South,9.2,-,N/A,,Scattered Clouds,190,2003-01-01 08:40:00
3:53 AM,64.9,64.9,100,29.85,10.0,South,11.5,-,N/A,,Mostly Cloudy,180,2003-01-01 08:53:00
4:53 AM,64.9,64.0,97,29.85,10.0,South,12.7,-,N/A,,Mostly Cloudy,180,2003-01-01 09:53:00
5:53 AM,64.9,64.9,100,29.86,10.0,SSW,10.4,-,N/A,,Overcast,200,2003-01-01 10:53:00
6:53 AM,64.9,64.9,100,29.86,10.0,South,10.4,-,N/A,,Clear,190,2003-01-01 11:53:00
7:53 AM,66.0,66.0,100,29.88,10.0,SW,11.5,-,N/A,,Clear,220,2003-01-01 12:53:00
8:53 AM,68.0,66.9,96,29.91,10.0,SW,10.4,-,N/A,,Clear,220,2003-01-01 13:53:00
9:53 AM,70.0,66.0,87,29.93,10.0,SW,9.2,-,N/A,,Clear,220,2003-01-01 14:53:00
10:53 AM,71.1,64.9,81,29.94,10.0,WSW,10.4,-,N/A,,Partly Cloudy,250,2003-01-01 15:53:00
11:53 AM,71.1,64.9,81,29.93,10.0,WSW,8.1,-,N/A,,Clear,240,2003-01-01 16:53:00
12:53 PM,72.0,64.9,78,29.91,10.0,WSW,6.9,-,N/A,,Clear,240,2003-01-01 17:53:00
1:53 PM,73.0,64.9,76,29.90,10.0,WSW,9.2,-,N/A,,Clear,240,2003-01-01 18:53:00
2:53 PM,72.0,66.0,81,29.90,10.0,West,11.5,-,N/A,,Clear,270,2003-01-01 19:53:00
3:53 PM,71.1,64.9,81,29.91,10.0,West,10.4,-,N/A,,Clear,280,2003-01-01 20:53:00
4:53 PM,70.0,64.0,81,29.91,10.0,WNW,10.4,-,N/A,,Clear,290,2003-01-01 21:53:00
5:53 PM,66.9,64.0,90,29.92,10.0,WNW,6.9,-,N/A,,Clear,290,2003-01-01 22:53:00
6:53 PM,64.9,64.0,97,29.94,10.0,WNW,6.9,-,N/A,,Clear,300,2003-01-01 23:53:00
7:53 PM,64.0,63.0,96,29.95,10.0,Calm,Calm,-,N/A,,Clear,0,2003-01-02 00:53:00
8:53 PM,62.1,62.1,100,29.96,10.0,Calm,Calm,-,N/A,,Clear,0,2003-01-02 01:53:00
9:53 PM,60.1,60.1,100,29.97,9.0,Calm,Calm,-,N/A,,Clear,0,2003-01-02 02:53:00
10:53 PM,59.0,59.0,100,29.98,9.0,Calm,Calm,-,N/A,,Clear,0,2003-01-02 03:53:00
11:53 PM,60.1,60.1,100,29.97,7.0,East,3.5,-,N/A,,Clear,100,2003-01-02 04:53:00